Location: Bouchavesnes-Bergen
(49.9859°N, 2.9203°E)
Time: 13:17:28
(UTC+00:00)

NOAA 16 DEB - Pass Details

Date: 28 September 2021
Orbit: 798 x 841 km, 98.8° (Epoch: 16 October)

Event Time Altitude Azimuth Distance (km) Brightness Sun altitude
Exits shadow 20:51:08 12° 33° (NNE) 2,265 ? -30.6°
Drops below altitude 10° 20:51:59 10° 24° (NNE) 2,388 ? -30.7°
Sets 20:55:37 0° 358° (N) 3,320 ? -31.2°
